This demonstration page uses our WeatherBlox Daily Observations layout. Learn more.

Left ArrowRight Arrow

Hourly Observations for August 26, 2019

Temp ( °F °C ) Dew Point ( °F °C ) Humidity (%) Winds ( mph kmh ) Pressure ( in mb ) Visibility ( mi km ) Precip ( " mm )
12:53 am 00:53 Clear 84 28.9 55 12.8 37 37 SW 3 6 29.60 1003 10 16 0.00 0.00
1:53 am 01:53 Clear 81 27.2 54 12.2 39 39 SSW 9 15 29.61 1003 10 16 0.00 0.00
2:53 am 02:53 Clear 80 26.7 51 10.6 37 37 SW 8 13 29.60 1002 10 16 0.00 0.00
3:53 am 03:53 Clear 77 25 53 11.7 43 43 S 8 13 29.60 1002 10 16 0.00 0.00
4:53 am 04:53 Clear 73 22.8 57 13.9 57 57 ESE 6 9 29.60 1003 10 16 0.00 0.00
5:53 am 05:53 Clear 72 22.2 58 14.4 61 61 ESE 5 7 29.61 1003 10 16 0.00 0.00
6:53 am 06:53 Clear 71 21.7 60 15.6 68 68 Calm 29.62 1003 10 16 0.00 0.00
7:53 am 07:53 Sunny 70 21.1 60 15.6 71 71 N 6 9 29.64 1004 10 16 0.00 0.00
8:53 am 08:53 Sunny 77 25 57 13.9 50 50 Calm 29.65 1004 10 16 0.00 0.00
9:53 am 09:53 Sunny 89 31.7 52 11.1 28 28 W 8 13 29.65 1004 10 16 0.00 0.00
10:53 am 10:53 Sunny 96 35.6 45 7.2 17 17 W 12 19 29.65 1004 10 16 0.00 0.00
11:53 am 11:53 Sunny 100 37.8 43 6.1 14 14 W 13 20 29.65 1004 10 16 0.00 0.00
12:53 pm 12:53 Sunny 105 40.6 42 5.6 12 12 WNW 10 17 29.63 1003 10 16 0.00 0.00
1:53 pm 13:53 Sunny 109 42.8 34 1.1 7 7 NW 13 20 29.61 1003 10 16 0.00 0.00
2:53 pm 14:53 Sunny 110 43.3 34 1.1 7 7 WNW 15 24 29.60 1002 10 16 0.00 0.00
3:53 pm 15:53 Sunny 109 42.8 32 0 7 7 undefined N/A 29.57 1001 10 16 0.00 0.00
4:53 pm 16:53 Sunny 110 43.3 36 2.2 8 8 NNW 15 24 29.55 1001 10 16 0.00 0.00
5:53 pm 17:53 Sunny 110 43.3 35 1.7 8 8 NW 6 9 29.54 1001 10 16 0.00 0.00
6:53 pm 18:53 Sunny 110 43.3 33 0.6 7 7 NNW 5 7 29.54 1000 10 16 0.00 0.00
7:53 pm 19:53 Sunny 106 41.1 40 4.4 10 10 Calm 29.55 1001 10 16 0.00 0.00
8:53 pm 20:53 Clear 101 38.3 41 5 13 13 Calm 29.56 1001 10 16 0.00 0.00
9:53 pm 21:53 Clear 92 33.3 52 11.1 26 26 SSW 5 7 29.58 1002 10 16 0.00 0.00
10:53 pm 22:53 Clear 92 33.3 50 10 24 24 W 6 9 29.59 1002 10 16 0.00 0.00
11:53 pm 23:53 Clear 92 33.3 51 10.6 25 25 S 12 19 29.60 1002 10 16 0.00 0.00

Powered by AerisWeather